ALK104 VRMM-VCBI

Flight info

Callsign ALK104
Flight time 1h 8m
Altitude 37000
Route HOKEY1A HOKEY M512 TELIG LALUM2A
Aircraft A20N/M-SDE2E3FGHIRWXY/LB1

Departure

Time 2026-05-08 12:30
Airport Velana International Airport (VRMM)

Arrival

Time 2026-05-08 13:38
Airport Bandaranaike International Colombo Airport (VCBI)
Time Latitude Longitude Altitude Speed Heading
2026-05-08 12:09 4.18872 73.52794 12 ft 0 kts 269°
2026-05-08 12:21 4.18872 73.52801 12 ft 5 kts 269°
2026-05-08 12:21 4.18873 73.52820 15 ft 0 kts 269°
2026-05-08 12:21 4.18873 73.52829 14 ft 2 kts 287°
2026-05-08 12:21 4.18866 73.52841 13 ft 2 kts 343°
2026-05-08 12:22 4.18862 73.52842 13 ft 0 kts 359°
2026-05-08 12:25 4.18863 73.52842 12 ft 1 kts 359°
2026-05-08 12:25 4.18893 73.52843 12 ft 9 kts
2026-05-08 12:25 4.18928 73.52867 13 ft 6 kts 72°
2026-05-08 12:26 4.18907 73.52913 13 ft 10 kts 146°
2026-05-08 12:26 4.18828 73.52919 14 ft 14 kts 176°
2026-05-08 12:26 4.18717 73.52921 12 ft 16 kts 179°
2026-05-08 12:26 4.18642 73.52923 12 ft 12 kts 179°
2026-05-08 12:27 4.18567 73.52935 12 ft 10 kts 140°
2026-05-08 12:27 4.18547 73.52983 12 ft 0 kts 92°
2026-05-08 12:28 4.18546 73.53016 12 ft 11 kts 93°
2026-05-08 12:28 4.18525 73.53078 12 ft 7 kts 109°
2026-05-08 12:28 4.18549 73.53103 12 ft 0 kts
2026-05-08 12:29 4.18619 73.53104 12 ft 40 kts 358°
2026-05-08 12:29 4.19146 73.53101 12 ft 108 kts 360°
2026-05-08 12:29 4.20084 73.53099 14 ft 159 kts 359°
2026-05-08 12:29 4.21210 73.53095 475 ft 164 kts 358°
2026-05-08 12:30 4.22352 73.53079 1032 ft 163 kts 356°
2026-05-08 12:30 4.23499 73.53027 1635 ft 173 kts 355°
2026-05-08 12:30 4.24598 73.52995 1987 ft 189 kts 356°
2026-05-08 12:30 4.26007 73.52988 2279 ft 217 kts 356°
2026-05-08 12:31 4.27592 73.52987 2827 ft 239 kts 357°
2026-05-08 12:31 4.29322 73.52990 3533 ft 257 kts 358°
2026-05-08 12:31 4.31135 73.53001 4506 ft 263 kts 358°
2026-05-08 12:31 4.32986 73.53015 5446 ft 269 kts 358°
2026-05-08 12:32 4.34862 73.53029 6441 ft 272 kts 358°
2026-05-08 12:32 4.36765 73.53042 7338 ft 276 kts 358°
2026-05-08 12:32 4.38689 73.53152 8260 ft 281 kts 11°
2026-05-08 12:32 4.40484 73.53969 9122 ft 290 kts 36°
2026-05-08 12:33 4.41793 73.55519 9990 ft 298 kts 60°
2026-05-08 12:33 4.42407 73.57559 10507 ft 319 kts 82°
2026-05-08 12:33 4.42480 73.59871 10774 ft 344 kts 90°
2026-05-08 12:33 4.42387 73.62334 11173 ft 361 kts 91°
2026-05-08 12:34 4.42286 73.64857 11948 ft 364 kts 91°
2026-05-08 12:34 4.42222 73.67416 12694 ft 369 kts 90°
2026-05-08 12:34 4.42192 73.70003 13447 ft 374 kts 90°
2026-05-08 12:34 4.42183 73.72624 14117 ft 378 kts 89°
2026-05-08 12:35 4.42200 73.75265 14816 ft 380 kts 86°
2026-05-08 12:35 4.42510 73.77900 15496 ft 382 kts 78°
2026-05-08 12:35 4.43105 73.80508 16154 ft 385 kts 76°
2026-05-08 12:35 4.43713 73.83129 16833 ft 388 kts 76°
2026-05-08 12:36 4.44319 73.85770 17498 ft 390 kts 76°
2026-05-08 12:36 4.44926 73.88428 18141 ft 393 kts 76°
2026-05-08 12:36 4.45535 73.91108 18691 ft 396 kts 76°
2026-05-08 12:36 4.46148 73.93801 19239 ft 398 kts 76°
2026-05-08 12:37 4.46759 73.96482 19777 ft 401 kts 76°
2026-05-08 12:37 4.47382 73.99219 20309 ft 404 kts 76°
2026-05-08 12:37 4.48016 74.02006 20855 ft 407 kts 76°
2026-05-08 12:37 4.48639 74.04747 21376 ft 410 kts 76°
2026-05-08 12:38 4.49274 74.07539 21915 ft 412 kts 76°
2026-05-08 12:38 4.49913 74.10349 22430 ft 415 kts 76°
2026-05-08 12:38 4.50557 74.13181 22942 ft 418 kts 76°
2026-05-08 12:38 4.51207 74.16035 23434 ft 421 kts 76°
2026-05-08 12:39 4.51860 74.18904 23906 ft 422 kts 76°
2026-05-08 12:39 4.52511 74.21767 24429 ft 422 kts 76°
2026-05-08 12:39 4.53163 74.24633 24899 ft 422 kts 76°
2026-05-08 12:39 4.53822 74.27508 25329 ft 424 kts 76°
2026-05-08 12:40 4.54588 74.30367 25736 ft 426 kts 72°
2026-05-08 12:40 4.55477 74.33206 26117 ft 428 kts 72°
2026-05-08 12:40 4.56363 74.36066 26518 ft 430 kts 72°
2026-05-08 12:40 4.57250 74.38934 26898 ft 432 kts 72°
2026-05-08 12:41 4.58143 74.41820 27274 ft 434 kts 72°
2026-05-08 12:41 4.59041 74.44719 27637 ft 436 kts 72°
2026-05-08 12:41 4.59944 74.47630 28000 ft 438 kts 73°
2026-05-08 12:41 4.60851 74.50553 28359 ft 440 kts 73°
2026-05-08 12:42 4.61762 74.53489 28713 ft 442 kts 73°
2026-05-08 12:42 4.62676 74.56436 29058 ft 444 kts 73°
2026-05-08 12:42 4.63591 74.59390 29394 ft 445 kts 73°
2026-05-08 12:42 4.64512 74.62360 29725 ft 447 kts 73°
2026-05-08 12:43 4.65437 74.65343 30034 ft 449 kts 73°
2026-05-08 12:43 4.66365 74.68340 30303 ft 451 kts 73°
2026-05-08 12:43 4.67296 74.71346 30571 ft 453 kts 73°
2026-05-08 12:43 4.68233 74.74369 30852 ft 455 kts 73°
2026-05-08 12:44 4.69172 74.77401 31197 ft 455 kts 73°
2026-05-08 12:44 4.70110 74.80428 31579 ft 454 kts 73°
2026-05-08 12:44 4.71045 74.83446 31967 ft 453 kts 73°
2026-05-08 12:44 4.71966 74.86424 32332 ft 452 kts 73°
2026-05-08 12:45 4.72897 74.89432 32697 ft 451 kts 73°
2026-05-08 12:45 4.73825 74.92433 33058 ft 450 kts 73°
2026-05-08 12:45 4.74752 74.95427 33419 ft 449 kts 73°
2026-05-08 12:45 4.75676 74.98416 33755 ft 448 kts 73°
2026-05-08 12:46 4.76597 75.01395 34048 ft 447 kts 73°
2026-05-08 12:46 4.77518 75.04365 34351 ft 446 kts 73°
2026-05-08 12:46 4.78129 75.06332 34538 ft 445 kts 73°
2026-05-08 12:46 4.79350 75.10288 34920 ft 444 kts 73°
2026-05-08 12:47 4.79954 75.12245 35094 ft 443 kts 73°
2026-05-08 12:47 4.80866 75.15198 35375 ft 443 kts 73°
2026-05-08 12:47 4.81776 75.18143 35657 ft 442 kts 73°
2026-05-08 12:47 4.82684 75.21078 35941 ft 441 kts 73°
2026-05-08 12:48 4.83592 75.24010 36225 ft 440 kts 73°
2026-05-08 12:48 4.84499 75.26941 36508 ft 439 kts 73°
2026-05-08 12:48 4.85402 75.29861 36750 ft 439 kts 73°
2026-05-08 12:48 4.86305 75.32779 36798 ft 437 kts 73°
2026-05-08 12:49 4.88103 75.38595 36802 ft 436 kts 73°
2026-05-08 12:49 4.89901 75.44409 36801 ft 437 kts 73°
2026-05-08 12:50 4.91699 75.50224 36801 ft 437 kts 73°
2026-05-08 12:50 4.93498 75.56046 36803 ft 438 kts 73°
2026-05-08 12:51 4.96205 75.64804 36806 ft 439 kts 73°
2026-05-08 12:52 4.98011 75.70654 36811 ft 440 kts 73°
2026-05-08 12:52 5.00693 75.79416 36815 ft 441 kts 73°
2026-05-08 12:53 5.02493 75.85294 36811 ft 441 kts 73°
2026-05-08 12:53 5.04301 75.91181 36810 ft 442 kts 73°
2026-05-08 12:54 5.06112 75.97070 36811 ft 442 kts 73°
2026-05-08 12:54 5.07924 76.02964 36809 ft 442 kts 73°
2026-05-08 12:55 5.09743 76.08863 36811 ft 443 kts 73°
2026-05-08 12:55 5.11560 76.14768 36812 ft 443 kts 73°
2026-05-08 12:56 5.13375 76.20670 36809 ft 443 kts 73°
2026-05-08 12:56 5.15186 76.26582 36810 ft 443 kts 73°
2026-05-08 12:57 5.16998 76.32494 36804 ft 443 kts 73°
2026-05-08 12:57 5.18815 76.38412 36803 ft 444 kts 73°
2026-05-08 12:58 5.20631 76.44328 36807 ft 444 kts 73°
2026-05-08 12:58 5.22447 76.50245 36806 ft 444 kts 73°
2026-05-08 12:59 5.24263 76.56165 36806 ft 444 kts 73°
2026-05-08 12:59 5.26080 76.62092 36806 ft 444 kts 73°
2026-05-08 13:00 5.27895 76.68014 36803 ft 444 kts 73°
2026-05-08 13:00 5.29710 76.73943 36804 ft 444 kts 73°
2026-05-08 13:01 5.31525 76.79870 36814 ft 445 kts 73°
2026-05-08 13:01 5.33339 76.85807 36805 ft 445 kts 73°
2026-05-08 13:02 5.35150 76.91742 36805 ft 445 kts 73°
2026-05-08 13:02 5.36966 76.97679 36807 ft 445 kts 73°
2026-05-08 13:03 5.38789 77.03620 36806 ft 445 kts 73°
2026-05-08 13:03 5.40595 77.09520 36809 ft 445 kts 73°
2026-05-08 13:04 5.42411 77.15465 36811 ft 446 kts 73°
2026-05-08 13:04 5.44228 77.21413 36812 ft 446 kts 73°
2026-05-08 13:05 5.46045 77.27360 36813 ft 446 kts 73°
2026-05-08 13:05 5.47863 77.33312 36812 ft 446 kts 73°
2026-05-08 13:06 5.49679 77.39260 36811 ft 446 kts 73°
2026-05-08 13:06 5.51493 77.45211 36815 ft 446 kts 74°
2026-05-08 13:07 5.53303 77.51161 36811 ft 446 kts 74°
2026-05-08 13:07 5.55115 77.57109 36811 ft 446 kts 74°
2026-05-08 13:08 5.56928 77.63059 36813 ft 446 kts 74°
2026-05-08 13:08 5.58743 77.69011 36810 ft 446 kts 73°
2026-05-08 13:09 5.60554 77.74958 36803 ft 446 kts 74°
2026-05-08 13:09 5.62367 77.80914 36804 ft 446 kts 74°
2026-05-08 13:10 5.64167 77.86827 36803 ft 446 kts 74°
2026-05-08 13:10 5.65981 77.92786 36805 ft 446 kts 74°
2026-05-08 13:11 5.68159 77.98620 36805 ft 448 kts 65°
2026-05-08 13:11 5.71371 78.03977 36807 ft 450 kts 54°
2026-05-08 13:12 5.75269 78.08900 36802 ft 450 kts 53°
2026-05-08 13:12 5.79176 78.13820 36803 ft 451 kts 53°
2026-05-08 13:13 5.83089 78.18747 36805 ft 451 kts 53°
2026-05-08 13:13 5.87003 78.23672 36807 ft 451 kts 53°
2026-05-08 13:14 5.90923 78.28605 36811 ft 452 kts 53°
2026-05-08 13:14 5.94842 78.33539 36809 ft 452 kts 53°
2026-05-08 13:15 5.98762 78.38474 36814 ft 452 kts 53°
2026-05-08 13:15 6.02680 78.43410 36821 ft 452 kts 53°
2026-05-08 13:16 6.06597 78.48343 36817 ft 451 kts 54°
2026-05-08 13:16 6.10478 78.53233 36298 ft 445 kts 54°
2026-05-08 13:17 6.12419 78.55656 35647 ft 446 kts 51°
2026-05-08 13:17 6.14575 78.57913 34923 ft 450 kts 45°
2026-05-08 13:17 6.16963 78.59898 34196 ft 454 kts 39°
2026-05-08 13:17 6.19479 78.61829 33427 ft 456 kts 40°
2026-05-08 13:18 6.21998 78.63776 32305 ft 458 kts 40°
2026-05-08 13:18 6.24529 78.65740 30792 ft 462 kts 39°
2026-05-08 13:18 6.27090 78.67735 29118 ft 469 kts 39°
2026-05-08 13:18 6.29714 78.69780 27363 ft 472 kts 39°
2026-05-08 13:19 6.32316 78.71801 25768 ft 473 kts 39°
2026-05-08 13:19 6.34882 78.73781 24581 ft 470 kts 38°
2026-05-08 13:19 6.37436 78.75746 23922 ft 454 kts 38°
2026-05-08 13:19 6.39895 78.77681 23124 ft 443 kts 41°
2026-05-08 13:20 6.42075 78.79794 22455 ft 427 kts 49°
2026-05-08 13:20 6.43928 78.82040 22085 ft 407 kts 52°
2026-05-08 13:20 6.45676 78.84263 21818 ft 408 kts 52°
2026-05-08 13:20 6.47459 78.86511 21248 ft 414 kts 52°
2026-05-08 13:21 6.49263 78.88779 20684 ft 417 kts 52°
2026-05-08 13:21 6.51082 78.91069 19902 ft 421 kts 52°
2026-05-08 13:21 6.52904 78.93366 19243 ft 419 kts 52°
2026-05-08 13:21 6.54708 78.95643 18553 ft 412 kts 52°
2026-05-08 13:22 6.56468 78.97865 17887 ft 401 kts 51°
2026-05-08 13:22 6.58173 79.00020 17284 ft 387 kts 51°
2026-05-08 13:22 6.59822 79.02102 16680 ft 375 kts 51°
2026-05-08 13:22 6.61426 79.04127 16094 ft 367 kts 51°
2026-05-08 13:23 6.63017 79.06135 15488 ft 367 kts 51°
2026-05-08 13:23 6.64606 79.08143 14862 ft 367 kts 51°
2026-05-08 13:23 6.66189 79.10144 14285 ft 366 kts 51°
2026-05-08 13:23 6.67772 79.12145 13702 ft 366 kts 51°
2026-05-08 13:24 6.69352 79.14141 13116 ft 363 kts 51°
2026-05-08 13:24 6.70918 79.16120 12533 ft 360 kts 51°
2026-05-08 13:24 6.72466 79.18075 12130 ft 353 kts 51°
2026-05-08 13:24 6.73985 79.19990 11615 ft 349 kts 51°
2026-05-08 13:25 6.75498 79.21897 11050 ft 348 kts 51°
2026-05-08 13:25 6.77002 79.23794 10477 ft 346 kts 51°
2026-05-08 13:25 6.78474 79.25654 10311 ft 332 kts 51°
2026-05-08 13:25 6.79885 79.27437 10181 ft 318 kts 51°
2026-05-08 13:26 6.81230 79.29137 10050 ft 303 kts 51°
2026-05-08 13:26 6.82519 79.30767 9617 ft 294 kts 51°
2026-05-08 13:26 6.83770 79.32350 9264 ft 283 kts 51°
2026-05-08 13:26 6.84979 79.33879 9008 ft 279 kts 52°
2026-05-08 13:27 6.86183 79.35400 8631 ft 275 kts 52°
2026-05-08 13:27 6.87360 79.36889 8254 ft 268 kts 52°
2026-05-08 13:27 6.88504 79.38336 7892 ft 260 kts 52°
2026-05-08 13:27 6.89620 79.39747 7668 ft 264 kts 52°
2026-05-08 13:28 6.90847 79.41301 7438 ft 301 kts 52°
2026-05-08 13:28 6.92163 79.42967 7368 ft 303 kts 52°
2026-05-08 13:28 6.93313 79.44693 7273 ft 291 kts 63°
2026-05-08 13:28 6.94044 79.46535 7013 ft 280 kts 75°
2026-05-08 13:29 6.94497 79.48416 6592 ft 274 kts 76°
2026-05-08 13:29 6.94953 79.50273 6146 ft 274 kts 76°
2026-05-08 13:29 6.95415 79.52122 5780 ft 271 kts 76°
2026-05-08 13:29 6.95878 79.53961 5400 ft 270 kts 76°
2026-05-08 13:30 6.96337 79.55785 4936 ft 268 kts 76°
2026-05-08 13:30 6.96791 79.57594 4498 ft 263 kts 75°
2026-05-08 13:30 6.97244 79.59375 4256 ft 269 kts 75°
2026-05-08 13:30 6.97722 79.61188 3995 ft 266 kts 74°
2026-05-08 13:31 6.98200 79.62981 3736 ft 265 kts 74°
2026-05-08 13:31 6.98680 79.64777 3479 ft 265 kts 74°
2026-05-08 13:31 6.99155 79.66568 3218 ft 265 kts 74°
2026-05-08 13:31 6.99629 79.68363 2951 ft 266 kts 74°
2026-05-08 13:32 7.00105 79.70162 2700 ft 266 kts 74°
2026-05-08 13:32 7.00579 79.71954 2497 ft 262 kts 74°
2026-05-08 13:32 7.01036 79.73678 2381 ft 247 kts 72°
2026-05-08 13:32 7.01705 79.75195 2247 ft 230 kts 55°
2026-05-08 13:33 7.02705 79.76378 2117 ft 216 kts 43°
2026-05-08 13:33 7.03806 79.77333 1978 ft 202 kts 38°
2026-05-08 13:33 7.04880 79.78169 1963 ft 186 kts 37°
2026-05-08 13:33 7.05866 79.78931 1853 ft 172 kts 37°
2026-05-08 13:34 7.06780 79.79637 1764 ft 160 kts 37°
2026-05-08 13:34 7.07351 79.80077 1712 ft 152 kts 37°
2026-05-08 13:34 7.08161 79.80702 1599 ft 140 kts 37°
2026-05-08 13:34 7.08931 79.81296 1558 ft 147 kts 37°
2026-05-08 13:35 7.09731 79.81913 1493 ft 141 kts 37°
2026-05-08 13:35 7.10480 79.82491 1429 ft 132 kts 37°
2026-05-08 13:35 7.11215 79.83058 1351 ft 134 kts 37°
2026-05-08 13:35 7.11949 79.83625 1201 ft 132 kts 37°
2026-05-08 13:36 7.12680 79.84188 1037 ft 132 kts 37°
2026-05-08 13:36 7.13410 79.84752 882 ft 133 kts 38°
2026-05-08 13:36 7.14145 79.85319 723 ft 134 kts 38°
2026-05-08 13:36 7.14887 79.85891 564 ft 135 kts 38°
2026-05-08 13:37 7.15636 79.86468 377 ft 135 kts 37°
2026-05-08 13:37 7.16404 79.87043 172 ft 139 kts 40°
2026-05-08 13:37 7.17148 79.87638 35 ft 131 kts 30°
2026-05-08 13:37 7.17755 79.88100 30 ft 81 kts 36°
2026-05-08 13:38 7.18024 79.88305 28 ft 39 kts 36°
2026-05-08 13:38 7.18244 79.88465 26 ft 39 kts 35°
2026-05-08 13:38 7.18414 79.88605 27 ft 30 kts 39°
2026-05-08 13:38 7.18575 79.88727 28 ft 29 kts 36°
2026-05-08 13:39 7.18683 79.88845 29 ft 15 kts 94°
2026-05-08 13:39 7.18647 79.88915 28 ft 0 kts 117°
2026-05-08 13:40 7.18646 79.88916 28 ft 1 kts 120°
2026-05-08 13:40 7.18631 79.88933 28 ft 7 kts 135°
2026-05-08 13:40 7.18563 79.88940 27 ft 13 kts 206°
2026-05-08 13:40 7.18477 79.88877 27 ft 17 kts 217°
2026-05-08 13:41 7.18377 79.88802 27 ft 19 kts 216°
2026-05-08 13:41 7.18267 79.88719 27 ft 20 kts 218°
2026-05-08 13:41 7.18176 79.88650 27 ft 14 kts 217°
2026-05-08 13:41 7.18095 79.88589 27 ft 15 kts 216°
2026-05-08 13:42 7.18007 79.88522 27 ft 16 kts 218°
2026-05-08 13:42 7.17944 79.88471 27 ft 0 kts 219°
2026-05-08 13:43 7.17929 79.88459 27 ft 8 kts 219°
2026-05-08 13:43 7.17860 79.88444 27 ft 11 kts 140°
2026-05-08 13:43 7.17795 79.88521 27 ft 17 kts 124°
2026-05-08 13:43 7.17730 79.88607 27 ft 12 kts 130°
2026-05-08 13:44 7.17675 79.88630 27 ft 9 kts 208°
2026-05-08 13:44 7.17635 79.88585 27 ft 8 kts 237°
2026-05-08 13:44 7.17618 79.88570 27 ft 1 kts 218°
2026-05-08 13:44 7.17614 79.88567 27 ft 0 kts 218°